Regional Weather Roundup
Issued by NWS

Home | Current Version | Previous Version | Text Only | Print | Product List | Glossary On
Versions: 1 2 3 4 5 6 7 8 9 10 11 12 13 14 15 16 17 18 19 20 21 22 23 24 25 26 27 28 29 30 31 32 33 34 35 36 37 38 39 40 41 42 43 44 45 46 47 48 49 50
000
ASUS45 KABQ 300910
RWRNM
NEW MEXICO REGIONAL WEATHER ROUNDUP
NATIONAL WEATHER SERVICE ALBUQUERQUE NM
300 AM MDT SAT JUL 30 2016

NOTE: "FAIR" MEANS FEW OR NO CLOUDS BELOW 12,000 FEET AGL WITH NO
       SIGNIFICANT WEATHER OR OBSTRUCTIONS TO VISION.

      THIS PRODUCT IS RELEASED AS TWO VERSIONS.  ONE VERSION NEAR
      THE TOP OF THE HOUR CONTAINING PRELIMINARY DATA FROM ALBUQUERQUE
      AND OTHER STATIONS.  A FINAL VERSION WITH ADDITIONAL DATA IS
      ISSUED ABOUT 10 MINUTES AFTER THE HOUR.

NMZ501-503-504-510>518-301000-
NORTHWEST PLATEAU/NORTHCENTRAL MOUNTAINS

CITY           SKY/WX    TMP DP  RH WIND       PRES   REMARKS
FARMINGTON     FAIR      72  44  36 E10       30.10S
LOS ALAMOS     FAIR      65  42  42 S7        30.31R
SANTA FE       FAIR      64  46  52 SE7       30.25R
TAOS           FAIR      55  32  41 NW5       30.30S
ANGEL FIRE     FAIR      39  37  93 CALM      30.40S

$$
NMZ402-403-502-505>509-301000-
WESTCENTRAL MOUNTAINS/SOUTHWEST MOUNTAINS

CITY           SKY/WX    TMP DP  RH WIND       PRES   REMARKS
GALLUP         FAIR      62  45  53 CALM      30.21F
GRANTS         FAIR      60  49  67 S3        30.27F
SILVER CITY    FAIR      67  51  57 NW3       30.16R

$$
NMZ407-409-411-412-301000-
SOUTHERN DESERTS

CITY           SKY/WX    TMP DP  RH WIND       PRES   REMARKS
LORDSBURG      FAIR      72  54  53 W5        30.06F
DEMING         FAIR      78  55  44 CALM      30.07R
LAS CRUCES     FAIR      76  54  46 E3        30.10R
HOLLOMAN AFB   MOCLDY    79  58  48 S14       30.06R
ALAMOGORDO     FAIR      75  57  53 S10       30.08S
T OR C         FAIR      72  50  45 NW8       30.10S

$$
NMZ519>523-301000-
CENTRAL VALLEYS/CENTRAL HIGHLANDS

CITY           SKY/WX    TMP DP  RH WIND       PRES   REMARKS
ALBUQUERQUE    CLOUDY    70  55  59 E6        30.18R
DOUBLE EAGLE   FAIR      61  51  68 CALM      30.21R
MORIARTY ARPT  FAIR      57  52  82 NW5       30.26S
CLINES CORNERS FAIR      60  47  61 E5        30.31R
BELEN          FAIR      68  50  52 N3        30.17S
SOCORRO        FAIR      69  46  43 SW5       30.13S

$$
NMZ524>526-539-540-301000-
SOUTHCENTRAL MOUNTAINS

CITY           SKY/WX    TMP DP  RH WIND       PRES   REMARKS
RUIDOSO          N/A     63  50  63 SW3       30.31R

$$
NMZ527>531-301000-
NORTHEAST HIGHLANDS/NORTHEAST PLAINS

CITY           SKY/WX    TMP DP  RH WIND       PRES   REMARKS
LAS VEGAS      FAIR      50  47  89 N8        30.30S
RATON          FAIR      59  49  69 S3        30.24R
CLAYTON        FAIR      61  56  83 SW8       30.16F

$$
NMZ532>537-301000-
EASTCENTRAL PLAINS

CITY           SKY/WX    TMP DP  RH WIND       PRES   REMARKS
TUCUMCARI      FAIR      64  60  87 NW6       30.11S
CANNON AFB     CLOUDY    66  60  80 SE5       30.11F
CLOVIS AIRPORT FAIR      68  55  64 SE5       30.09F

$$
NMZ028-029-538-301000-
SOUTHEAST PLAINS

CITY           SKY/WX    TMP DP  RH WIND       PRES   REMARKS
ROSWELL        FAIR      77  56  48 SE3       30.08R
ARTESIA        FAIR      77  59  53 SE13      30.07R
CARLSBAD       FAIR      75  58  55 S8        30.05S
HOBBS          FAIR      73  63  68 S6        30.13R


$$




USA.gov is the U.S. government's official web portal to all federal, state and local government web resources and services.